Tulcea, Romania

8:36 PM EET on March 25, 2017 (GMT +0200)
Cataloi

Weather History for LRTC - March, 2013

Change the Weather History Date:

Sunday, March 3, 2013

  Actual Average Record
Temperature  
Mean Temperature 38 °F -  
Max Temperature 50 °F 49 °F 71 °F (2002)
Min Temperature 26 °F 35 °F 19 °F (2009)
Degree Days  
Heating Degree Days 27    
Moisture  
Dew Point 28 °F    
Average Humidity 66    
Maximum Humidity 95    
Minimum Humidity 25    
Precipitation  
Precipitation 0.00 in - - ()
Sea Level Pressure  
Sea Level Pressure 30.04 in    
Wind  
Wind Speed 6 mph ()    
Max Wind Speed 18 mph    
Max Gust Speed -    
Visibility 6.1 miles    
Events      
Averages and records for this station are not official NWS values.
T = Trace of Precipitation, MM = Missing Value Source: Averaged Metar Reports

Daily Weather History Graph

Daily Weather History Graph

Search for Another Location

Airport or City:

Trip Planner

Search our weather history database for the weather conditions in past years. The results will help you decide how hot, cold, wet, or windy it might be!

Date:

Astronomy

Mar. 03, 2013 Rise Set
Actual Time 6:39 AM EET 5:55 PM EET
Civil Twilight 6:10 AM EET 6:24 PM EET
Nautical Twilight 5:36 AM EET 6:58 PM EET
Astronomical Twilight 5:02 AM EET 7:32 PM EET
Moon No Moon Rise 9:21 AM EET (3/3)
Length of Visible Light 12h 14m
Length of Day
11h 15m
Waning Gibbous, 67% of the Moon is Illuminated
Mar 3
Waning Gibbous
Mar 4
Last Quarter
Mar 11
New
Mar 19
First Quarter
Mar 27
Full

Hourly Weather History & Observations

Time (EET) Temp. Windchill Dew Point Humidity Pressure Visibility Wind Dir Wind Speed Gust Speed Precip Events Conditions
12:00 AM 37 °F - 30 °F 66% 30.15 in 6 mi WNW 6.7 mph - -   Mostly Cloudy
12:00 AM 35.6 °F 27.5 °F 28.4 °F 75% 30.15 in 6.2 mi WNW 11.5 mph - N/A   Mostly Cloudy
1:00 AM 36 °F - 31 °F 74% 30.16 in 6 mi WNW 4.5 mph - -   Partly Cloudy
1:00 AM 33.8 °F 27.7 °F 28.4 °F 81% 30.15 in 6.2 mi NW 6.9 mph - N/A   Mostly Cloudy
2:00 AM 32 °F - 29 °F 86% 30.17 in 6 mi West 2.2 mph - -   Scattered Clouds
2:00 AM 32.0 °F - 28.4 °F 87% 30.15 in 6.2 mi ESE 2.3 mph - N/A   Unknown
3:00 AM 33 °F - 29 °F 82% 30.17 in 6 mi West 2.2 mph - -   Partly Cloudy
3:00 AM 32.0 °F - 28.4 °F 87% 30.15 in 6.2 mi Calm Calm - N/A   Mostly Cloudy
4:00 AM 30 °F - 28 °F 90% 30.15 in 6 mi West 2.2 mph - -   Partly Cloudy
4:00 AM 30.2 °F - 28.4 °F 93% 30.12 in 6.2 mi Calm Calm - N/A   Overcast
5:00 AM 30 °F - 29 °F 92% 30.15 in 6 mi WSW 2.2 mph - -   Scattered Clouds
5:00 AM 32.0 °F 27.5 °F 28.4 °F 87% 30.12 in 6.2 mi WSW 4.6 mph - N/A   Mostly Cloudy
5:30 AM 30.2 °F - 28.4 °F 93% 30.12 in 6.2 mi SSW 2.3 mph - N/A   Partly Cloudy
6:00 AM 27 °F - 26 °F 92% 30.14 in 6 mi Calm Calm - -  
6:00 AM 30.2 °F - 28.4 °F 93% 30.12 in 6.2 mi Calm Calm - N/A   Unknown
6:30 AM 28.4 °F 23.3 °F 24.8 °F 86% 30.12 in 6.2 mi WSW 4.6 mph - N/A   Unknown
7:00 AM 28.4 °F 23.3 °F 26.6 °F 93% 30.12 in 6.2 mi SW 4.6 mph - N/A   Unknown
7:30 AM 30.2 °F - 28.4 °F 93% 30.12 in 6.2 mi Variable 2.3 mph - N/A   Unknown
8:00 AM 34 °F - 28 °F 69% 30.13 in 6 mi WSW 4.5 mph - -  
8:00 AM 32.0 °F 27.5 °F 30.2 °F 93% 30.12 in - SSW 4.6 mph - N/A   Clear
8:30 AM 35.6 °F 31.7 °F 30.2 °F 81% 30.12 in - SSW 4.6 mph - N/A   Clear
9:00 AM 38 °F - 29 °F 59% 30.13 in 6 mi WSW 6.7 mph - -  
9:00 AM 37.4 °F 33.8 °F 30.2 °F 75% 30.12 in - SSW 4.6 mph - N/A   Clear
9:30 AM 41.0 °F 38.0 °F 30.2 °F 65% 30.12 in - South 4.6 mph - N/A   Clear
10:00 AM 41 °F - 26 °F 42% 30.12 in 6 mi SW 11.2 mph - -  
10:00 AM 41.0 °F 38.0 °F 30.2 °F 65% 30.09 in - South 4.6 mph - N/A   Clear
10:30 AM 44.6 °F 38.8 °F 24.8 °F 46% 30.09 in - SW 11.5 mph - N/A   Clear
11:00 AM 44 °F - 27 °F 38% 30.11 in 6 mi WSW 8.9 mph - -   Clear
11:00 AM 44.6 °F 38.1 °F 23.0 °F 43% 30.06 in - SW 13.8 mph - N/A   Clear
11:30 AM 46.4 °F 40.4 °F 24.8 °F 43% 30.06 in - SW 13.8 mph - N/A   Clear
12:00 PM 47 °F - 23 °F 26% 30.08 in 6 mi WSW 8.9 mph - -   Clear
12:00 PM 46.4 °F 40.4 °F 26.6 °F 46% 30.06 in - SW 13.8 mph - N/A   Clear
12:30 PM 48.2 °F - 26.6 °F 43% 30.04 in - SW 13.8 mph - N/A   Clear
1:00 PM 48 °F - 26 °F 29% 30.05 in 6 mi SW 8.9 mph - -  
1:00 PM 48.2 °F - 26.6 °F 43% 30.04 in - SSW 13.8 mph - N/A   Clear
1:30 PM 48.2 °F - 26.6 °F 43% 30.01 in - SSW 18.4 mph - N/A   Clear
2:00 PM 49 °F - 25 °F 26% 30.02 in 6 mi West 8.9 mph - -  
2:00 PM 48.2 °F - 28.4 °F 46% 29.98 in - SW 16.1 mph - N/A   Clear
2:30 PM 50.0 °F - 28.4 °F 43% 29.98 in - SW 16.1 mph - N/A   Clear
3:00 PM 50.0 °F - 26.6 °F 40% 29.98 in - SW 13.8 mph - N/A   Clear
3:30 PM 50.0 °F - 28.4 °F 43% 29.95 in - SW 13.8 mph - N/A   Clear
4:00 PM 50 °F - 25 °F 25% 29.97 in 6 mi SW 11.2 mph - -  
4:00 PM 50.0 °F - 28.4 °F 43% 29.95 in - SSW 16.1 mph - N/A   Clear
4:30 PM 48.2 °F - 28.4 °F 46% 29.95 in - SW 16.1 mph - N/A   Clear
5:00 PM 49 °F - 26 °F 28% 29.95 in 6 mi WSW 11.2 mph - -  
5:00 PM 48.2 °F - 28.4 °F 46% 29.92 in - SW 13.8 mph - N/A   Clear
5:30 PM 44.6 °F 39.7 °F 32.0 °F 61% 29.92 in - SW 9.2 mph - N/A   Clear
6:00 PM 47 °F - 28 °F 35% 29.94 in 6 mi WSW 6.7 mph - -  
6:00 PM 41.0 °F 36.4 °F 30.2 °F 65% 29.92 in - SW 6.9 mph - N/A   Clear
6:30 PM 39.2 °F 35.9 °F 30.2 °F 70% 29.92 in - SSW 4.6 mph - N/A   Clear
7:00 PM 44 °F - 29 °F 43% 29.93 in 6 mi SW 6.7 mph - -  
7:00 PM 37.4 °F 32.1 °F 30.2 °F 75% 29.92 in - SE 6.9 mph - N/A   Clear
7:30 PM 35.6 °F 29.9 °F 30.2 °F 81% 29.92 in - SSE 6.9 mph - N/A   Clear
8:00 PM 38 °F - 32 °F 70% 29.93 in 6 mi SSW 8.9 mph - -  
8:00 PM 35.6 °F 29.9 °F 32.0 °F 87% 29.92 in 6.2 mi SE 6.9 mph - N/A   Unknown
8:30 PM 35.6 °F 31.7 °F 32.0 °F 87% 29.92 in 6.2 mi SE 4.6 mph - N/A   Unknown
9:00 PM 35.6 °F 29.9 °F 32.0 °F 87% 29.92 in 6.2 mi SSE 6.9 mph - N/A   Unknown
10:00 PM 32 °F - 30 °F 88% 29.93 in 6 mi SE 2.2 mph - -  
10:00 PM 35.6 °F - 32.0 °F 87% 29.92 in 6.2 mi Variable 2.3 mph - N/A   Unknown
11:00 PM 30 °F - 29 °F 95% 29.92 in 6 mi SE 2.2 mph - -  
11:00 PM 35.6 °F - 30.2 °F 81% 29.92 in 6.2 mi Variable 2.3 mph - N/A   Unknown